Location: Gleizolles
(44.4833°N, 6.7667°E)
Time: 09:24:35
(UTC+00:00)

Altair - Pass Details

Date: 01 July 2024
Orbit: 1502 x 1682 km, 47.2° (Epoch: 20 July)

Event Time Altitude Azimuth Distance (km) Brightness Sun altitude
Rises 03:46:26 0° 290° (WNW) 4,663 9.7 -1.7°
Reaches altitude 10° 03:49:26 10° 289° (WNW) 3,695 9.2 -1.3°
Maximum altitude 03:58:47 82° 204° (SSW) 1,580 7.6 0.1°
Drops below altitude 10° 04:08:29 10° 119° (ESE) 3,821 10.0 1.6°
Sets 04:11:38 0° 118° (ESE) 4,829 10.6 2.1°
